Showing default

HULIANWANG DIGUI-149, 67525

Orbit data source: Space-Track

HULIANWANG DIGUI-149, 67525 is a payload satellite owned by Zhongguo Xingwang (CN) in LEO that was launched on Mon, 19 Jan 2026 UTC via a CHANG ZHENG 12 launch vehicle from the Wenchang Satellite Launch Center (WSC). Payload-class satellites include a variety of spacecraft equipped with specific instruments for various scientific and technological missions. These include communications satellites like Starlink; space stations such as the ISS; scientific satellites like the Hubble; Earth observation satellites from companies like Planet Labs, Umbra, and HawkEye 360; GPS; miniature CubeSats for education and research; and military/defense satellites.

Loading next visibility...
Identifier
67525, 2026-013D
Orbit
LEO
Country
Flag of CNCN / PRC
Related business
Manufacturer
YINNT
Mission
Operational spacecraft
Bus & Motor
XINGWANG Y, Unknown motor
Mass
~800 kg wet, ~800 kg dry
Launch date (UTC)
2026-01-19 (3 weeks ago)
Launch vehicle
CHANG ZHENG 12
Launch site
Wenchang Satellite Launch Center (WSC)
Object type
Payload
Rocket body
Debris
Shape & HBR
Unknown
Radar Cross Section
RCS unknown

Expand to show TLE details & history
Last TLE update: 18 hours ago

TLE from 18 hours ago
0 HULIANWANG DIGUI-149
1 67525U 26013D   26039.58893629 -.00000005  00000-0  12544-3 0  9992
2 67525  50.0066 103.9875 0001971  29.3196 330.7810 13.83393979  2835
Epoch: 2026-02-08T14:08Z
TLE epoch observation values (Epoch: 2026-02-08T14:08:04.095Z)
Latitude
-0.00001°
Longitude
113.27448°
Altitude
951.133 km
Speed
7.378 km/s
True Right ascension
06h 55m 56s
True Declination
0° 00' 00"
Sunlit
Object was in full shadow at epoch
Visualization orbit readout
Latitude
Unknown
Longitude
Unknown
Altitude
Unknown
Speed
Unknown
Apparent Right ascension
Unknown
Apparent Declination
Unknown
Sunlit
N/A
Visualization observer readout
Local Sidereal Time
10:09:10
Azimuth
Unknown
Elevation
Unknown
Doppler factor
Unknown
Orbital elements
Apogee altitude
954.041 km
Perigee altitude
951.152 km
Semi-major axis
7,330.733 km
Eccentricity
0.0002
Inclination
50.0066°
RAAN
103.9875°
Arg. of periapsis
29.3196°
True anomaly
330.76997°
Mean anomaly
330.781°
Eccentric anomaly
330.77549°
Mean motion
3.45798 °/min
Orbital period
104.11 mins
BSTAR
0.00012544
Loading maneuver chart data...
Computing Atmospheric mass density...
Loading historical data...
Loading historical data...
Loading historical data...
Loading historical data...
Loading historical data...
Loading historical data...
Loading historical data...

Documentation

Showing up to 5 results
|